www.pogodaiklimat.ru

Погода и климат >> Архив погоды >> Россия >> Краснодарский край >> Туапсе


АРХИВ ПОГОДЫ в Туапсе

Время (UTC), дата Ветер
(напр.,м/с)
 
Видим.   Явления Облачность Т
(С)
Тd
(С)
f
(%)
Тe
(С)
Тes
(С)
Комфортность P
(гПа)
Po
(гПа)
Тmin
(С)
Tmax
(С)
R
(мм)
R24
(мм)
S
(см)
09 18.06 ЮЗ 3 20 км 10/4 1000 м
[Cu med, cong Ac trans Ci sp]
+27.2 +17.9 57 +32 +36 очень
душно
1005.8 998.9
12 18.06 В 2 20 км в посл. час гроза 10/8 1000 м
[Cb cap Ac trans Ci sp]
+24.3 +14.2 53 +27 +28 жарко 1007.2 1000.2
15 18.06 СВ 4 20 км {ливн. осадки} 10/5 1000 м
[Cb cap Ac trans Ci sp]
+23.0 +14.2 58 +27 +27 душно 1006.9 999.8 +29.4 0.0
18 18.06 В 2 10 км {ливн. осадки} 4/3 1000 м
[Cu med, cong Ci sp]
+22.2 +14.3 61 +25 +25 комфорт 1006.6 999.5
21 18.06 СВ 2 10 км 8/3 1000 м
[Cu med, cong Ac cast Ci sp]
+20.7 +14.4 67 +24 +24 комфорт 1007.9 1000.8
00 19.06 СВ 2 10 км 6/3 1000 м
[Cu med, cong Ci sp]
+19.2 +14.8 76 +21 +21 комфорт 1008.6 1001.4
03 19.06 СВ 2 20 км 8/4 1000 м
[Cu Sc Ci sp]
+19.9 +14.9 73 +23 +23 комфорт 1009.4 1002.2 +18.6
06 19.06 Ю 1 20 км 8/3 1000 м
[Cu med, cong Ci]
+26.0 +15.0 51 +29 +36 душно 1010.3 1003.3
09 19.06 ЮЗ 2 20 км 6/4 1000 м
[Cu med, cong Ci fib]
+28.9 +18.7 54 +34 +45 очень
душно
1010.8 1003.9
12 19.06 СВ 4 10 км гроза без осадков 10/6 600 м
[Cu med, cong Ci sp]
+24.2 +17.1 65 +28 +31 душно 1012.1 1005.0
15 19.06 З 2 20 км {гроза, ливн. осадки} 10/0
[Ci]
+26.8 +16.8 54 +30 +33 душно 1010.7 1003.7 +29.6 0.0
18 19.06 СВ 1 10 км {гроза, ливн. осадки} ясно +22.6 +18.4 77 +28 +28 душно 1011.0 1003.9
21 19.06 СВ 1 10 км ясно +20.0 +16.1 78 +24 +24 комфорт 1011.2 1004.0
00 20.06 СВ 2 10 км ясно +19.2 +15.4 79 +21 +21 комфорт 1012.5 1005.3
03 20.06 СВ 2 20 км 1/1 1000 м
[Cu med, cong]
+19.9 +14.4 71 +23 +23 комфорт 1012.9 1005.7 +18.4
06 20.06 Ю 1 20 км 1/1 1000 м
[Cu hum]
+27.5 +14.7 46 +30 +41 жарко 1013.3 1006.3
09 20.06 ЮЗ 3 20 км 1/1 1000 м
[Cu hum]
+28.3 +19.1 57 +34 +48 очень
душно
1013.8 1006.8
12 20.06 ЮЗ 2 20 км 3/3 1000 м
[Cu hum]
+30.1 +19.1 52 +36 +45 очень
душно
1013.2 1006.3
15 20.06 З 2 20 км ясно +27.0 +19.8 65 +33 +36 очень
душно
1012.7 1005.7 +30.6
18 20.06 СВ 2 10 км ясно +23.6 +18.9 75 +28 +28 душно 1013.0 1005.9
21 20.06 В 2 10 км 4/1 1000 м
[Sc Ci fib]
+22.9 +18.7 77 +29 +29 очень
душно
1014.5 1007.4
00 21.06 СВ 2 10 км 3/1 1000 м
[Sc Ci fib]
+20.2 +16.6 80 +24 +24 комфорт 1014.3 1007.1
03 21.06 СВ 2 20 км 4/3 1000 м
[Cu hum Ci fib]
+19.8 +15.0 74 +22 +23 комфорт 1014.9 1007.7 +18.7
06 21.06 В 2 20 км 3/3 1000 м
[Cu med, cong]
+24.4 +15.6 58 +27 +35 жарко 1015.0 1007.9
09 21.06 ЮЗ 3 20 км 3/3 1000 м
[Cu med, cong]
+28.8 +19.1 56 +34 +46 очень
душно
1014.2 1007.2
12 21.06 ЮЗ 3 20 км ясно +29.3 +19.4 55 +35 +46 очень
душно
1013.1 1006.2
15 21.06 З 2 20 км ясно +27.3 +19.4 62 +33 +35 очень
душно
1011.5 1004.5 +30.3
18 21.06 З 1 10 км ясно +23.4 +19.7 80 +30 +30 очень
душно
1011.8 1004.7
21 21.06 С 1 н/о н/о +23.2 +19.6 80 +30 +30 очень
душно
1011.3 1004.2
00 22.06 СВ 2 10 км 3/3 1000 м
[Sc]
+21.1 +18.3 84 +25 +25 комфорт 1010.5 1003.4
03 22.06 СВ 1 20 км 4/3 1000 м
[Sc Ci fib]
+21.5 +17.9 80 +26 +27 душно 1010.3 1003.2 +20.6
06 22.06 ЮЗ 2 20 км 9/4 1000 м
[Cu Sc Ci]
+26.8 +19.3 63 +32 +37 очень
душно
1009.9 1002.9
09 22.06 ЮЗ 2 20 км 10/4 1000 м
[Cu Sc Ci]
+30.4 +19.4 52 +36 +45 очень
душно
1009.4 1002.5
12 22.06 ЮЗ 3 20 км 10/8 1000 м
[Cu med, cong Ci fib]
+30.5 +19.3 51 +36 +38 очень
душно
1008.5 1001.6
15 22.06 З 2 20 км в посл. час ливневой дождь 10/8 1000 м
[Cb cap Ci sp]
+25.1 +19.8 72 +31 +31 очень
душно
1007.5 1000.5 +31.2 0.0
18 22.06 СЗ 1 10 км {ливн. осадки} 10/8 1000 м
[Cb cap Ac trans Ci sp]
+24.1 +18.7 72 +29 +29 душно 1008.4 1001.4
21 22.06 СВ 2 10 км 8/3 1000 м
[Cu med, cong Ci sp]
+23.2 +19.0 77 +29 +29 душно 1009.0 1002.0
00 23.06 СВ 1 10 км 9/5 1000 м
[Cu med, cong Ci sp]
+22.8 +20.5 87 +30 +30 очень
душно
1007.7 1000.6
03 23.06 С 1 20 км {ливн. осадки} 10/8 1000 м
[Cb cap Ac trans Ci sp]
+22.2 +19.5 85 +28 +28 душно 1008.2 1001.1 +22.0 0.0
06 23.06 СВ 2 10 км гроза, ливневой дождь 10/8 1000 м
[Cb cap Ci sp]
+21.0 +17.9 82 +26 +28 душно 1009.3 1002.2 +20.9
09 23.06 С 1 20 км {гроза, ливн. осадки} 10/8 1000 м
[Cb cap Ci sp]
+22.8 +18.0 74 +28 +32 душно 1009.3 1002.2
12 23.06 Ю 3 20 км {гроза, ливн. осадки} 10/8 1000 м
[Cb cap Ci sp]
+23.4 +17.7 70 +29 +31 душно 1009.5 1002.4
15 23.06 В 3 20 км в посл. час ливневой дождь 10/8 1000 м
[Cb cap Ci sp]
+22.3 +19.3 83 +28 +28 душно 1009.0 1001.9 +24.4 12
18 23.06 ЮЗ 2 10 км {ливн. осадки} 10/6 1000 м
[Cb cap Ci sp]
+21.9 +19.3 85 +27 +27 душно 1010.2 1003.1
21 23.06 З 1 10 км 10/4 1000 м
[Cb cap Ci sp]
+21.6 +19.0 85 +26 +26 душно 1010.8 1003.7
00 24.06 ЮВ 2 10 км 10/0
[Ci sp]
+22.1 +17.5 75 +27 +27 душно 1011.7 1004.6
03 24.06 В 1 20 км 8/0
[Ac cast Ci sp]
+22.6 +16.9 70 +27 +28 душно 1012.4 1005.3 +21.3 2
06 24.06 ЮВ 2 20 км 4/3 1000 м
[Cu med, cong Ci fib]
+25.5 +17.7 62 +30 +37 душно 1012.7 1005.7
09 24.06 ЮЗ 2 20 км 4/3 1000 м
[Cu med, cong Ci fib]
+28.3 +19.6 59 +34 +47 очень
душно
1013.4 1006.4
12 24.06 ЮЗ 2 20 км 8/6 1000 м
[Cu hum Ci fib]
+28.6 +19.7 59 +35 +40 очень
душно
1013.5 1006.6
15 24.06 З 2 20 км 1/1 1000 м
[Cu med, cong]
+26.9 +18.5 60 +32 +34 очень
душно
1013.1 1006.1 +29.9
18 24.06 С 1 10 км ясно +23.9 +18.3 71 +28 +28 душно 1013.4 1006.3
21 24.06 СВ 2 10 км ясно +24.3 +14.5 54 +27 +27 жарко 1013.0 1005.9
00 25.06 СВ 2 10 км ясно +22.6 +15.7 65 +27 +27 душно 1013.2 1006.1
03 25.06 СВ 3 20 км ясно +22.3 +15.8 67 +26 +27 жарко 1013.3 1006.2 +21.8
06 25.06 В 2 20 км ясно +27.1 +16.0 51 +30 +41 душно 1013.4 1006.4

 

Местоположение метеостанции Туапсе (Краснодарский край, Россия): широта 44.10 долгота 39.07 высота над уровнем моря 62 м.

В архиве по умолчанию представлена погода в Туапсе за последнюю неделю. Архивные данные за месяц целиком и за предыдущие месяцы, начиная с января 2011 года, Вы можете получить, выбрав интересующий диапазон дат из раскрывающегося списка и нажав кнопку "Ввод!".


*Определитесь, кто Вы:
робот инопланетянин человек

Внимание! Время в таблицах - всемирное. Для получения местного времени необходимо прибавить поправку, которая в Туапсе равна 3 ч.

Смотрите также архив погоды в соседних городах и на ближайших метеорологических станциях:

Погода в Магри (Краснодарский край, Россия) (11 км)
Погода в Горном (Краснодарский край, Россия) (26 км)
Погода в Лазаревском (Краснодарский край, Россия) (30 км)
Погода в Джубге (Краснодарский край, Россия) (38 км)
Погода в Кичмае (Краснодарский край, Россия) (46 км)
Погода в Солох Ауле (Краснодарский край, Россия) (56 км)
Погода в Горячем Ключе (Краснодарский край, Россия) (59 км)
Погода в Сочи (Краснодарский край, Россия) (81 км)
Погода в Гузерипле (Адыгея, Россия) (85 км)
Погода в Шунтуке (Адыгея, Россия) (93 км)

Пояснения к столбцам:

Ветер - указаны скорость ветра в м/с - средняя за 10 мин, порывы в срок и между сроками (в фигурных скобках) и направление, откуда дует ветер: С - северный, СВ - северо-восточный, В - восточный, ЮВ - юго-восточный, Ю - южный, ЮЗ - юго-западный, З - западный, СЗ - северо-западный.
Видимость - горизонтальная дальность видимости в метрах или километрах. При видимости от 1 до 10 км при отсутствии осадков обычно наблюдается дымка, при ухудшении видимости до 1 км и менее - туман. В сухую погоду видимость может ухудшаться дымом, пылью или мглою.
Явления - указаны атмосферные явления, наблюдавшиеся в срок или в последний час перед сроком; фигурными скобками обозначены явления, наблюдавшиеся между сроками (за 1-3 часа до срока); квадратными скобками обозначены град или гололедные отложения с указанием их диаметра в мм.
Облачность - указаны через наклонную черту общая и нижняя облачность в баллах и высота нижней границы облаков в метрах; квадратными скобками обозначены формы облаков: Ci - перистые, Cs - перисто-слоистые, Cc - перисто-кучевые, Ac - высококучевые, As - высокослоистые, Sc - слоисто-кучевые, Ns - слоисто-дождевые, Cu - кучевые, Cb - кучево-дождевые. Подробнее классификацию облаков см. в Атласе облаков (PDF).
T - Температура воздуха - температура, измеренная на высоте 2 м над землей.
Td - Температура точки росы - температура, при понижении до которой содержащийся в воздухе водяной пар достигнет насыщения.
f - Относительная влажность воздуха - влажноcть воздуха, измеренная на высоте 2 м над землей.
Te - Эффективная температура - температура, которую ощущает одетый по сезону человек в тени. Характеристика душности погоды. При расчете учитывается влияние влажности воздуха и скорости ветра на теплоощущения человека.
Tes - Эффективная температура на солнце - температура, которую ощущает человек, с поправкой на солнечный нагрев. Характеристика знойности погоды. Зависит от высоты солнца над горизонтом, облачности и скорости ветра. Ночью, в пасмурную погоду, а также при ветре 12 м/с и более поправка равна нулю.
P - Атмосферное давление - приведенное к уровню моря атмосферное давление.
Po - Атмосферное давление - измеренное на уровне метеостанции атмосферное давление.
Tmin - Минимальная температура - минимум температуры воздуха на высоте 2 м над землей.
Tmax - Максимальная температура - максимум температуры воздуха на высоте 2 м над землей.
R - Количество осадков - Количество выпавших осадков за период времени, мм. При наведении курсора мыши на число - период времени, за который выпало указанное количество осадков.
R24 - Количество осадков - Количество выпавших осадков за 24 часа, мм.
S - Снежный покров - Высота снежного покрова, см. При наведении курсора мыши на число - состояние снежного покрова и степень покрытия местности в баллах.